Location: Czekanka
(50.4925°N, 19.2643°E)
Time: 12:57:56
(UTC+00:00)

FENGYUN 1C DEB - Pass Details

Date: 18 November 2025
Orbit: 800 x 866 km, 98.6° (Epoch: 04 December)

Event Time Altitude Azimuth Distance (km) Brightness Sun altitude
Rises 15:18:09 0° 203° (SSW) 3,398 ? -4.3°
Reaches altitude 10° 15:21:02 10° 218° (SW) 2,457 ? -4.7°
Maximum altitude 15:25:15 23° 269° (W) 1,723 ? -5.4°
Drops below altitude 10° 15:29:27 10° 320° (NW) 2,436 ? -6.0°
Sets 15:32:19 0° 335° (NNW) 3,363 ? -6.4°
